Погода в Вегарусе

Россия / Республика Карелия     62°17′42″N   32°05′56″E
темп.,
°C
ветер,
м/с
пор.,
м/с
влажн.,
%
обл.,
%
осадки,
мм/ч
давл.,
гПа
погр.,
м
15 апреля, чт
чт1500:00−1зсз27885 0.0 1026160
03:00−2сз25905 0.0 1027111
06:00−3ссз12955 0.0 102941
09:00+3ссв23683 0.0 1030446
12:00+6св22475 0.0 10311115
15:00+7св12431 0.0 10311316
18:00+6св12520 0.0 1031520
21:00+1ссв11805 0.0 103210
16 апреля, пт
пт1600:00−1ссв11870 0.0 103310
03:00−1ссв11874 0.0 103310
06:00−1ссв11870 0.0 103414
09:00+5св23620 0.0 1034310
12:00+8св23535 0.0 1034930
15:00+9всв34505 0.0 10341168
18:00+9всв35625 0.0 1034788
21:00+3всв27875 0.0 1035137
17 апреля, сб
сб1700:00+2всв28900 0.0 1036151
03:000в23910 0.0 103659
06:000всв24880 0.0 103782
09:00+5всв35630 0.0 1037343
12:00+8всв34470 0.0 1036823
15:00+10всв33420 0.0 10351043
18:00+9в23480 0.0 1034781
21:00+4в22690 0.0 103515
18 апреля, вс
вс1800:00+3в11735 0.0 103510
03:00+1всв11740 0.0 103510
06:00+1всв11754 0.0 103510
09:00+6в12580 0.0 1035261
12:00+10в22480 0.0 1034903
15:00+11в22425 0.0 10331317
18:00+11в22455 0.0 10321314
21:00+6вюв22703 0.0 103334
19 апреля, пн
пн1900:00+4юв22760 0.0 103317
03:00+2юв11760 0.0 103410
06:00+2юв11805 0.0 103410
09:00+7юв126555 0.0 1033283
12:00+10юв22498 0.0 10321054
15:00+12юв224124 0.0 10311498
18:00+12юв22425 0.0 10301522
21:00+7юв22659 0.0 103026